Погода в Белогорке

Хотите узнать прогноз погоды в Белогорке? Тогда Вам сюда: Погода в Белогорке

Поиск расширенной информации на нашем сайте:

Полезная информация:

Новости сайта



02.01.2020
Опубликован Долгосрочный прогноз погоды по городам России и ближнего зарубежья на январь 2020 года.
Карты: Прогноз на январь и февраль 2020 года, Сравнение прогнозируемой аномалии приземной температуры воздуха на январь 2020 года по разным моделям.




Погода в Белогорке - сегодня

Время (UTC), дата Ветер
(°,м/с) 
Видим.   Явления Облачность Т
(°С)
Тd
(°С)
f(%) Тe
(°С)
Pmin
(гПа)
dP
(гПа)
Po
(мм)
O2
(г/м3)
Тmin Tmax R s Состояние
почвы
00 29.11.20 070 (В) 50000 м    10/10 330 м 
[St]
-0.8 -2.5 88 -2  1030.7  0.4  764  309           
03 29.11.20 070 (В) 20000 м    10/10 330 м 
[St]
-1.3 -3.1 88 -2  1030.9  0.1  765  310  -1.3         
06 29.11.20 070 (В) 50000 м    10/10 360 м 
[St]
-1.5 -3.3 88 -2  1030.6  -0.3  764  310  -1.5         
09 29.11.20 070 (В) 10 км    10/10 330 м 
[St]
-1.7 -3.6 87 -4  1030.7  0.1  764  310           
12 29.11.20 050 (СВ) 10 км    9/9 420 м кучево-дожд. 
[Cb cap]
-1.7 -3.4 88 -4  1029.4  -1.3  763  310           
15 29.11.20 060 (СВ) 4000 м  слаб. ливневой снег  9/9 450 м кучево-дожд. 
[Cb cap]
-1.6 -3 90 -3  1028.3  -1  763  309      0.0     
18 29.11.20 070 (В) 50000 м  {ливн. осадки}  10/10 300 м 
[St]
-1.5 -2.8 91 -2  1027.1  -1.2  762  309    -1.5  0.0     
21 29.11.20 070 (В) 20000 м    10/10 300 м 
[St]
-1.3 -2.4 92 -3  1025.8  -1.3  761  308           
00 30.11.20 070 (В) 4000 м  слаб. снег  10/10 300 м 
[Ns]
-1.1 -1.7 96 -2  1024.2  -1.6  760  308           
03 30.11.20 090 (В) 20000 м  {снег}  10/10 210 м 
[St]
-0.1 -0.1 100 -1  1022.8  -1.3  759  306  -1.6    0.3     
06 30.11.20 140 (ЮВ) 50000 м  {снег}  10/10 270 м 
[St]
+0.6 +0.6 100 1022.6  -0.2  758  305  -1.5    0.3  <0.5  мокрый или
старый снег
50-90% 
09 30.11.20 150 (ЮВ) 10 км    9/3 600 м средняя 
[Sc|Ac As]
+0.6 -0.8 90 1022.6  758  305           
12 30.11.20 170 (Ю) 10 км    9/9 630 м 
[Sc]
+0.5 -1.9 84 1021.5  -1.1  758  305           
15 30.11.20 130 (ЮВ) 4000 м  слаб. снег  9/5 600 м средняя 
[Sc|As op]
-0.2 -1.6 90 1020.5  -1  757  305      0.0     
18 30.11.20 150 (ЮВ) 4000 м  слаб. снег  10/10 300 м 
[Ns]
-0.4 -1.1 95 -1  1019.4  -1.1  756  305    +1.1  0.3     
21 30.11.20 170 (Ю) 50000 м  {снег}  10/10 420 м 
[St]
-0.4 -1.5 92 -1  1019.1  -0.3  756  305           
00 01.12.20 170 (Ю) 4000 м  слаб. снег  10/10 360 м 
[Ns]
-0.6 -1.2 96 -2  1018.7  -0.4  756  305           
03 01.12.20 190 (Ю) 4000 м  слаб. снег  10/10 300 м 
[Ns]
-0.5 -0.5 100 -2  1019.2  0.5  756  305  -0.6       
06 01.12.20 210 (ЮЗ) 50000 м  {снег}  10/10 300 м 
[St]
-0.1 -0.6 96 -2  1021.1  1.9  757  305  -0.6    равномерный
мокрый или
старый снег
100% 
09 01.12.20 210 (ЮЗ) 10 км  {снег}  10/10 240 м 
[St]
+0.6 -0.1 95 -2  1023.1  759  305           
12 01.12.20 210 (ЮЗ) 10 км  {снег}  10/10 300 м 
[St]
+0.8 -0.4 92 -2  1024.8  1.7  760  305           
15 01.12.20 210 (ЮЗ) 50000 м    9/9 480 м кучево-дожд. 
[Cb cap]
+0.7 -0.8 90 -2  1026.8  762  306      0.3     
21 01.12.20 210 (ЮЗ) 20000 м    10/10 210 м 
[St]
+0.6 +0.6 100 -2  1029.6  1.3  764  307           
00 02.12.20 230 (ЮЗ) 50000 м    10/10 420 м 
[St]
+0.8 +0 94 -2  1030.7  1.1  764  307           
03 02.12.20 230 (ЮЗ) 20000 м    10/10 270 м 
[St]
+0.3 -0.6 94 -1  1031.5  0.8  765  308  +0.3         
Время (UTC), дата Ветер
(°,м/с) 
Видим.   Явления Облачность Т
(°С)
Тd
(°С)
f(%) Тe
(°С)
Pmin
(гПа)
dP
(гПа)
Po
(мм)
O2
(г/м3)
Тmin Tmax R s Состояние
почвы

Для получения пояснительной информации подведите курсор к названию столбца.

ПОГОДА в Белогорке - архив

Всё, что Вы хотите узнать о погоде в Белогорке - удобно и подробно!

Выберите нужную дату (начиная с 1 января 2019* года) и нажмите кнопку "Найти".
Будут отображены архивные сводки погоды по пункту Белогорка, начиная с указанной даты.


Отображать данные в формате CSV (для использования в таблицах Excel)


Внимание! Наш архив погоды предназначен исключительно для личного некоммерческого использования в познавательных целях. Если Вам необходимы официальные справки о состоянии погоды (для производственных, юридических, коммерческих и т.п. целей), обращайтесь в органы Росгидромета.

*Примечание: данная дата относится к архиву по метеостанциям СССР (Россия, СНГ, Балтия).
Архив по метеостанциям Зарубежной Европы и Азии (кроме Китая) хранится 10 дней, по другим регионам земного шара (Китай, Африка, Америка, Австралия, Океания) - 1 день.

Белогорка - район местоположения метеостанции


Название, широта, долгота, высота метеостанции:
Белогорка 59.3°ш. 30.1°д. 90 м над ур. моря [Российская Федерация]

Дополнительная информация

В oтличие oт бoльшинства пoгoдных сайтoв мы публикуем пoдрoбную метеoинфoрмацию в детальнoм прoфессиoнальнoм фoрмате.

Характеристики температуры и влажнoсти вoздуха измеряются на высoте 2 м в тени вдали oт зданий и деревьев.
Скoрoсть ветра измеряется на высoте 10 м (на урoвне рoста челoвека скoрoсть ветра ниже в 1.5-2 раза). Если метеoстанция нахoдится в гoрoде или в лесу, тo скoрoсть ветра занижена на 2-4 м/с пo сравнению с oткрытым местoм. Скoрoсть ветра над акватoриями крупных рек и oзёр, а также на вершинах хoлмoв на 2-5 м/с выше, чем в oбычных услoвиях.
Атмoсфернoе давление в разных тoчках местнoсти мoжет значительнo oтличаться oт давления на метеoстанции, в зависимoсти oт услoвий рельефа (при пoдъёме на 10 м давление пoнижается примернo на 1 мм рт.ст.).